sat.trackr.live / text

‹ back to catalog

JILIN-1 GAOFEN 2A

NORAD 44777 · 2019-075A

PAYLOAD ACTIVE UNKNOWN

§ Identity

Operator
Country
PRC
Launch date
2019-11-13
Launch site
JSC
Launch vehicle
Mass (kg)
RCS (m²)

External: N2YO · Heavens-Above · Gunter

§ Orbital elements

Epoch: 2026-09-10T04:05:40.855200Z

Period
93.42 min
Inclination
97.4933°
Eccentricity
0.0007010
Mean motion
15.41386409 rev/d
Perigee alt
437.2 km
Apogee alt
446.8 km
Semi-major
6,820.2 km
B*
3.0168e-4
RAAN
339.0554°
Arg perigee
129.9992°
Mean anomaly
230.1870°
Rev number
37,796

§ Raw data

JILIN-1 GAOFEN 2A1 44777U 19075A   26253.17061175  .00012527  00000+0  30168-3 0  99942 44777  97.4933 339.0554 0007010 129.9992 230.1870 15.41386409377968

JSON: /api/v1/satellites/44777 · /tle

For live sub-satellite position, see the globe view (requires WebGL).

§ Visibility from observer

Set your observer location to see the next 7 days of passes ≥ 10°. The values pass through the URL so the page stays shareable.

No JS? Fill the form by hand. The geolocation button needs JavaScript.

§ Radio — SatNOGS DB

ModeDescriptionDownlinkUplink
FM S-band telemetry 2.215 GHz

1 transmitter · refreshed weekly from db.satnogs.org